www.pogodaiklimat.ru

Погода и климат >> Архив погоды >> Украина >> Мироновка


ПОГОДА в Мироновке

  • Прогноз погоды в Мироновке
  • Монитор погоды в Мироновке

АРХИВ ПОГОДЫ в Мироновке

Время (UTC), дата Ветер
(напр.,м/с)
 
Видим.   Явления Облачность Т
(С)
Тd
(С)
f
(%)
Тe
(С)
Тes
(С)
Комфортность P
(гПа)
Po
(гПа)
Тmin
(С)
Tmax
(С)
R
(мм)
R24
(мм)
S
(см)
03 15.08 СЗ 2 17 км 4/0
[Ci sp]
+16.6 +11.9 74 +17 +17 1009.3 991.4
06 15.08 С 4 14 км 9/8 720 м
[Cu hum Ci fib]
+21.2 +18.0 82 +25 +26 комфорт 1009.7 992.1 +16.0
09 15.08 С 5 15 км 10/10 720 м
[Sc]
+20.4 +16.8 80 +23 +23 комфорт 1010.3 992.6
12 15.08 С 4 17 км 10/10 800 м
[Sc]
+20.4 +15.7 74 +23 +23 комфорт 1010.6 992.9
15 15.08 СЗ 3 19 км 10/6 900 м
[Sc Cs]
+20.2 +14.8 71 +23 +24 комфорт 1010.3 992.6
18 15.08 С 2 17 км 10/10 870 м
[Sc]
+18.6 +14.1 75 +20 +20 1011.4 993.6 +22.1
21 15.08 СЗ 2 14 км слаб. ливневой дождь 10/10 800 м
[Cb cap]
+17.9 +14.3 79 +18 +18 1011.5 993.6
00 16.08 СЗ 2 10 км {ливн. осадки} 10/10 870 м
[Cb calv]
+16.8 +14.0 84 +17 +17 1010.9 993.0 0.7
03 16.08 С 3 10 км 10/10 800 м
[Sc]
+16.0 +13.3 84 +16 +16 1010.9 992.9
06 16.08 СЗ 3 9000 м дымка 10/10 660 м
[Cb calv]
+15.4 +13.8 90 +15 +15 1011.3 993.3 +15.4 0.7
09 16.08 СЗ 3 9000 м дымка {ливн. осадки} 10/10 630 м
[Cb calv]
+16.4 +13.9 85 +16 +16 1011.6 993.6
12 16.08 СЗ 2 9000 м дымка {ливн. осадки} 10/10 660 м
[Cb calv]
+16.2 +13.9 86 +16 +16 1011.9 993.9
15 16.08 СЗ 3 9000 м дымка {ливн. осадки} 10/10 570 м
[Cb calv]
+16.1 +14.4 90 +16 +16 1012.1 994.1
18 16.08 С 2 9000 м дымка {ливн. осадки} 10/10 800 м
[Sc]
+16.0 +13.7 86 +16 +16 1012.6 994.6 +16.6 0.3
21 16.08 СЗ 2 12 км 10/10 960 м
[Sc]
+15.6 +12.5 82 +15 +15 1012.7 994.7
00 17.08 СЗ 1 12 км 10/10 1050 м
[Sc]
+15.2 +12.5 84 +16 +16 1012.3 994.2
03 17.08 СЗ 1 11 км 10/10 800 м
[Sc]
+14.7 +12.1 84 +15 +15 1011.8 993.7
06 17.08 СЗ 3 15 км 10/10 800 м
[Sc]
+15.8 +12.4 80 +15 +15 1012.0 994.0 +14.6
09 17.08 СЗ 3 18 км 10/10 840 м
[Sc]
+16.8 +12.1 74 +17 +17 1012.3 994.3
12 17.08 С 2 19 км 10/10 960 м
[Sc]
+18.0 +12.5 70 +19 +19 1012.1 994.2
15 17.08 С 4 20 км 10/10 840 м
[Sc]
+18.1 +12.0 68 +18 +18 1012.4 994.5
18 17.08 С 2 17 км 10/10 660 м
[Cb calv]
+16.6 +12.1 75 +17 +17 1013.1 995.1 +19.0
21 17.08 СЗ 2 13 км 10/10 660 м
[Cb calv]
+16.2 +13.2 82 +16 +16 1012.7 994.7
00 18.08 З 2 13 км 10/5 600 м
[Sc Ac und]
+16.0 +13.0 82 +16 +16 1013.3 995.3
03 18.08 ЮЗ 1 9000 м дымка 8/0
[Ac trans Ci fib]
+12.8 +11.1 89 +13 +13 1013.8 995.6
06 18.08 СЗ 2 19 км ясно +16.9 +11.4 70 +17 +22 1014.0 996.0 +12.2
09 18.08 С 3 20 км 6/5 1000 м
[Cu hum Ac trans]
+23.1 +6.6 34 +24 +29 комфорт 1013.9 996.3
12 18.08 З 3 20 км 5/3 1000 м
[Cu hum Ac trans Ci fib]
+25.2 +7.5 32 +25 +31 комфорт 1013.6 996.1
15 18.08 С 3 20 км 3/3 1000 м
[Cu hum]
+25.7 +4.8 26 +25 +26 комфорт 1014.0 996.5
18 18.08 Ю 1 22 км ясно +18.4 +11.3 63 +20 +20 1015.5 997.6 +26.4
21 18.08 Ю 1 18 км ясно +14.9 +10.5 75 +15 +15 1016.6 998.4
00 19.08 ЮВ 1 12 км ясно +12.7 +9.8 83 +13 +13 1017.7 999.4
03 19.08 штиль 0 9000 м дымка ясно +10.5 +8.2 86 +10 +10 1018.7 1000.2
06 19.08 СЗ 1 20 км ясно +19.8 +12.1 61 +22 +28 комфорт 1019.2 1001.3 +10.1
09 19.08 Ю 1 20 км ясно +26.6 +9.9 35 +27 +43 жарко 1018.7 1001.2
12 19.08 СЗ 3 20 км ясно +28.6 +11.7 35 +29 +38 жарко 1018.0 1000.6
15 19.08 СЗ 1 20 км ясно +29.4 +8.3 27 +29 +31 жарко 1018.3 1001.0
18 19.08 ЮВ 1 45 км ясно +21.6 +9.8 47 +23 +23 комфорт 1019.9 1002.1 +30.0
21 19.08 Ю 1 40 км ясно +20.1 +10.3 53 +23 +23 комфорт 1020.3 1002.4
00 20.08 штиль 0 16 км ясно +14.6 +11.0 79 +14 +14 1021.1 1002.8
03 20.08 штиль 0 9000 м дымка ясно +12.0 +10.0 88 +11 +11 1022.0 1003.6
06 20.08 С 1 20 км ясно +22.9 +13.6 56 +26 +32 жарко 1022.4 1004.6 +11.9
09 20.08 В 2 20 км ясно +28.5 +11.5 35 +29 +42 жарко 1022.0 1004.6
12 20.08 Ю 3 20 км ясно +30.0 +9.8 29 +30 +39 жарко 1021.0 1003.7
15 20.08 СВ 3 20 км ясно +30.3 +9.3 27 +30 +32 жарко 1021.2 1003.9
18 20.08 штиль 0 29 км ясно +22.4 +12.6 54 +25 +25 комфорт 1022.4 1004.6 +31.2
21 20.08 штиль 0 22 км ясно +19.2 +13.4 69 +20 +20 1023.0 1005.0
00 21.08 штиль 0 14 км ясно +16.2 +12.0 76 +16 +16 1022.6 1004.4
03 21.08 штиль 0 9000 м дымка ясно +14.5 +12.7 89 +14 +14 1023.1 1004.8
06 21.08 В 1 20 км 1/0
[Ci fib]
+24.5 +14.0 52 +27 +33 жарко 1022.8 1005.1 +13.0
09 21.08 В 2 20 км ясно +30.0 +11.6 32 +31 +43 жарко 1021.4 1004.1
12 21.08 В 2 20 км ясно +32.0 +10.5 27 +32 +42 жарко 1019.8 1002.6
15 21.08 СВ 3 20 км ясно +31.6 +10.9 28 +32 +33 жарко 1018.9 1001.7
18 21.08 штиль 0 30 км ясно +23.6 +14.9 58 +26 +26 жарко 1019.9 1002.2 +33.0
21 21.08 штиль 0 20 км ясно +18.8 +13.5 71 +20 +20 1020.5 1002.5
00 22.08 З 1 19 км ясно +18.0 +12.8 72 +19 +19 1020.1 1002.1

 

Местоположение метеостанции Мироновка (Киевская область, Украина): широта 49.67 долгота 31.00 высота над уровнем моря 153 м.

В архиве по умолчанию представлена погода в Мироновке за последнюю неделю. Архивные данные за месяц целиком и за предыдущие месяцы, начиная с января 2011 года, Вы можете получить, выбрав интересующий диапазон дат из раскрывающегося списка и нажав кнопку "Ввод!".


*Определитесь, кто Вы:
робот инопланетянин человек

Внимание! Время в таблицах - всемирное. Для получения местного времени необходимо прибавить поправку, которая равна 2 ч.

Смотрите также архив погоды в соседних городах и на ближайших метеорологических станциях:

Погода в Каневе (Черкасская область, Украина) (38 км)
Погода в Белой Церкви (Киевская область, Украина) (64 км)
Погода в Звенигородке (Черкасская область, Украина) (66 км)
Погода в Борисполе (Киевская область, Украина) (73 км)
Погода в Золотоноше (Черкасская область, Украина) (74 км)
Погода в Ротмистровке (Черкасская область, Украина) (79 км)
Погода в Жашкове (Черкасская область, Украина) (80 км)
Погода в Черкассах (Черкасская область, Украина) (81 км)
Погода в Барышевке (Киевская область, Украина) (81 км)
Погода в Яготине (Киевская область, Украина) (84 км)

Пояснения к столбцам:

Ветер - указаны скорость ветра в м/с - средняя за 10 мин, порывы в срок и между сроками (в фигурных скобках) и направление, откуда дует ветер: С - северный, СВ - северо-восточный, В - восточный, ЮВ - юго-восточный, Ю - южный, ЮЗ - юго-западный, З - западный, СЗ - северо-западный.
Видимость - горизонтальная дальность видимости в метрах или километрах. При видимости от 1 до 10 км при отсутствии осадков обычно наблюдается дымка, при ухудшении видимости до 1 км и менее - туман. В сухую погоду видимость может ухудшаться дымом, пылью или мглою.
Явления - указаны атмосферные явления, наблюдавшиеся в срок или в последний час перед сроком; фигурными скобками обозначены явления, наблюдавшиеся между сроками (за 1-3 часа до срока); квадратными скобками обозначены град или гололедные отложения с указанием их диаметра в мм.
Облачность - указаны через наклонную черту общая и нижняя облачность в баллах и высота нижней границы облаков в метрах; квадратными скобками обозначены формы облаков: Ci - перистые, Cs - перисто-слоистые, Cc - перисто-кучевые, Ac - высококучевые, As - высокослоистые, Sc - слоисто-кучевые, Ns - слоисто-дождевые, Cu - кучевые, Cb - кучево-дождевые. Подробнее классификацию облаков см. в Атласе облаков (PDF).
T - Температура воздуха - температура, измеренная на высоте 2 м над землей.
Td - Температура точки росы - температура, при понижении до которой содержащийся в воздухе водяной пар достигнет насыщения.
f - Относительная влажность воздуха - влажноcть воздуха, измеренная на высоте 2 м над землей.
Te - Эффективная температура - температура, которую ощущает одетый по сезону человек в тени. Характеристика душности погоды. При расчете учитывается влияние влажности воздуха и скорости ветра на теплоощущения человека.
Tes - Эффективная температура на солнце - температура, которую ощущает человек, с поправкой на солнечный нагрев. Характеристика знойности погоды. Зависит от высоты солнца над горизонтом, облачности и скорости ветра. Ночью, в пасмурную погоду, а также при ветре 12 м/с и более поправка равна нулю.
P - Атмосферное давление - приведенное к уровню моря атмосферное давление.
Po - Атмосферное давление - измеренное на уровне метеостанции атмосферное давление.
Tmin - Минимальная температура - минимум температуры воздуха на высоте 2 м над землей.
Tmax - Максимальная температура - максимум температуры воздуха на высоте 2 м над землей.
R - Количество осадков - Количество выпавших осадков за период времени, мм. При наведении курсора мыши на число - период времени, за который выпало указанное количество осадков.
R24 - Количество осадков - Количество выпавших осадков за 24 часа, мм.
S - Снежный покров - Высота снежного покрова, см. При наведении курсора мыши на число - состояние снежного покрова и степень покрытия местности в баллах.